User: anonymous   Login
Location: Newark
(18.8198°N, 82.1672°E)
Time: 18:20:48
(UTC+00:00)
Language:

JY1SAT - Orbit

View from above orbital plane
View from above orbital plane
View from above satellite
View from above satellite

Ground track
Ground track

The orbit data is extracted from the following two-line orbital elements,

1 43803U 18099AX  19296.51336610 -.00000164  00000-0 -96223-5 0  9997
2 43803  97.7317   6.8209 0013804 265.2726  94.6918 14.95338157 48370
Epoch (UTC): 23 October 2019 12:19:14
Eccentricity: 0.0013804
inclination: 97.7317°
perigee height: 572 km
apogee height: 591 km
right ascension of ascending node: 6.8209°
argument of perigee: 265.2726°
revolutions per day: 14.95338157
mean anomaly at epoch: 94.6918°
orbit number at epoch: 4837

The dashed part of the orbit path shows where the satellite is in the earth's shadow,  

DLR